Terminal Aerodrome Forecast
Issued by NWS Wichita, KS

Home | Current Version | Previous Version | Graphics & Text | Print | Product List | Glossary On
Versions: 1 2 3 4 5 6 7 8 9 10 11 12 13 14 15 16
000
FTUS43 KICT 251425 AAB
TAFICT
TAF AMD
KICT 251425Z 2514/2612 17018G25KT P6SM SCT250
     FM260000 14011KT P6SM BKN200
     FM260700 10008KT P6SM SCT200 WS020/19040KT
     FM261100 03008KT P6SM SCT015=

USA.gov is the U.S. government's official web portal to all federal, state and local government web resources and services.